{"data":{"norad_id":57908,"epoch":"2026-05-25T00:13:21.823104Z","epoch_age_seconds":67435,"freshness":"FRESH","line1":"1 57908U 23146T   26145.00928036  .00000591  00000+0  30973-4 0  9991","line2":"2 57908  42.9939 246.9927 0000506  42.5036 317.5854 15.27580815147622","mean_motion":15.27580815,"eccentricity":5.06e-5,"inclination_deg":42.9939,"raan_deg":246.9927,"arg_perigee_deg":42.5036,"mean_anomaly_deg":317.5854,"bstar":3.0973e-5,"rev_number":14762,"period_min":94.266698420142,"perigee_km":482.69947974457,"apogee_km":483.39383153052,"semimajor_km":6861.1836556375,"source":"CELESTRAK","updated_at":"2026-05-25T13:38:18.455156Z"}}